Theta_e
322 322 324 326 327 327 326 329 329 328 330 330 331 330 329 327 326 321 314 322 323 326 323 323 317 314 312 311 313 311 300 300 302 303 303 307 305 307 310 311 311 315 317 323 329
321 321 322 324 326 326 325 326 328 328 329 330 330 329 327 325 318 316 326 330 328 327 321 315 311 310 306 309 309 307 301 303 307 303 301 306 305 306 305 308 309 313 324 328 328
320 321 321 323 324 325 325 324 325 328 328 328 327 327 326 323 311 314 331 329 328 326 321 324 314 312 306 308 307 306 301 308 306 305 305 304 302 305 304 303 307 311 320 323 325
319 320 321 321 323 325 325 324 322 323 327 328 327 326 324 317 300 318 330 331 330 321 318 321 313 308 305 302 308 301 307 307 305 305 304 303 303 302 302 303 308 311 323 322 323
318 319 319 321 321 323 324 324 324 321 321 327 326 325 319 309 310 321 328 329 322 319 315 317 313 307 304 305 306 304 307 311 305 303 302 304 302 301 300 304 309 319 323 320 322
317 317 318 319 320 322 323 324 323 323 320 321 326 325 314 303 321 321 322 321 319 316 315 317 316 314 308 307 304 306 307 305 303 303 303 302 302 300 302 304 307 317 318 320 321
316 317 317 318 319 321 322 323 323 322 322 319 324 320 312 309 322 322 320 319 319 317 314 317 319 313 310 306 308 306 301 301 301 302 302 303 301 299 304 305 306 310 315 319 321
315 316 316 317 318 319 321 321 322 321 321 321 319 319 308 320 322 320 320 318 320 320 319 320 318 312 309 308 304 300 301 295 302 303 302 302 297 306 308 304 304 307 310 318 321
314 315 315 315 316 317 319 320 320 322 320 319 313 309 303 321 314 319 319 315 317 317 318 319 316 309 307 302 299 298 294 297 300 306 302 299 297 306 308 303 301 303 308 314 318
314 314 315 315 315 316 318 320 319 319 317 316 313 303 306 307 314 317 319 317 312 312 311 310 307 302 302 300 293 295 295 298 297 303 302 298 297 303 301 301 302 303 304 311 314
313 314 315 315 316 317 316 312 305 302 307 301 301 301 305 313 317 314 316 313 311 309 301 305 299 295 299 302 304 302 299 298 301 302 299 298 299 303 305 300 299 300 302 307 315
313 314 315 315 315 316 314 305 305 308 297 306 305 305 307 314 306 310 315 306 305 299 303 300 296 301 304 304 302 302 299 298 301 298 295 297 298 301 304 305 304 301 301 303 308
313 313 314 314 315 311 307 306 314 313 298 300 304 302 304 308 305 306 310 307 303 299 299 295 298 304 303 300 299 300 298 297 298 298 299 295 294 299 304 304 303 303 302 303 305
312 312 313 313 307 307 304 311 313 312 290 293 298 301 303 304 302 311 312 307 303 298 299 298 301 300 299 298 300 295 301 300 299 296 292 295 286 295 300 303 304 302 299 300 302
311 311 312 313 306 303 307 312 313 306 276 294 296 307 304 297 303 304 312 307 299 299 299 295 297 299 297 299 302 297 302 299 296 294 292 293 288 292 298 298 301 305 303 302 301
310 311 311 309 308 309 312 312 307 287 277 288 297 295 295 297 301 304 305 308 307 301 301 297 300 301 301 303 302 299 296 294 292 293 286 291 290 290 295 298 300 303 305 305 304
308 310 308 308 300 309 310 304 285 279 288 285 290 295 294 293 298 299 298 296 295 290 290 295 296 297 300 298 298 297 294 284 284 284 284 289 289 293 298 300 300 300 299 301 305
307 308 308 307 309 308 303 292 278 284 286 290 291 295 290 294 296 297 296 292 298 296 291 288 285 293 301 298 293 295 294 284 278 280 282 283 283 291 301 300 297 298 300 298 297
307 304 303 305 308 305 292 278 281 285 289 289 292 290 289 295 295 295 293 292 297 297 289 288 287 295 299 298 298 292 290 294 284 277 280 284 288 294 297 296 295 295 296 297 296
300 299 299 306 306 299 286 280 284 290 290 293 288 292 286 289 290 292 292 297 297 299 298 292 285 292 292 298 296 295 297 288 287 276 276 283 285 288 291 295 296 296 296 296 296
298 291 300 305 302 291 280 281 285 290 292 288 291 290 288 288 290 291 292 297 299 298 297 295 290 287 292 292 290 292 291 292 291 288 280 278 283 289 294 295 295 292 294 294 296
295 285 301 302 286 287 283 286 289 289 292 290 292 294 289 291 291 292 290 295 301 300 294 294 289 283 286 292 296 295 293 293 287 283 285 283 283 292 292 292 294 293 295 296 297
286 288 298 298 281 283 287 287 289 288 289 288 288 296 296 292 289 294 294 299 301 299 295 294 287 281 283 287 289 291 294 295 291 287 282 280 283 294 292 292 293 293 294 296 295
289 283 287 290 290 286 284 285 285 291 289 291 288 297 295 293 296 292 294 298 301 300 298 297 289 286 282 286 289 287 291 293 291 283 284 286 288 288 290 292 292 293 295 295 296
291 285 286 281 284 286 289 288 285 285 290 293 290 294 293 291 292 292 293 296 299 297 295 294 284 288 289 291 290 290 291 292 290 291 287 289 290 293 294 294 296 296 298 297 297
286 285 285 286 286 285 286 285 285 288 290 288 288 295 296 292 292 291 294 294 294 293 292 293 284 286 280 289 290 287 291 291 292 292 291 290 289 296 295 295 296 296 297 296 296
292 291 288 286 285 282 284 285 287 290 291 294 292 295 294 295 298 298 298 297 297 294 292 291 286 284 277 282 284 279 287 290 291 293 293 288 293 294 293 295 295 296 296 296 296
Wind_Speed
18 16 14 13 12 12 9 13 12 12 14 13 7 10 9 5 5 10 11 2 7 6 3 7 2 1 2 3 3 5 3 4 8 5 3 6 4 3 2 5 2 3 6 10 14
18 17 16 15 14 13 12 9 13 13 12 11 11 10 10 8 10 18 2 9 10 8 8 9 6 5 2 1 2 3 4 9 5 6 5 4 3 8 3 6 4 7 11 14 13
18 17 16 16 15 14 13 12 9 14 14 13 11 8 12 10 7 15 13 10 9 8 9 10 7 5 3 1 5 5 8 7 5 6 3 4 3 1 4 5 6 12 13 13 16
18 17 18 19 18 18 16 15 12 9 15 17 16 13 15 7 7 5 18 16 12 9 10 10 11 7 2 4 6 3 10 9 7 2 2 5 3 2 5 1 4 4 19 15 13
20 17 17 18 18 19 19 16 15 13 8 16 18 17 10 4 11 5 7 13 13 10 12 12 12 8 9 8 6 9 8 8 9 5 3 2 4 3 4 4 6 13 16 15 15
18 16 16 16 18 20 20 18 16 14 11 7 19 21 8 23 7 8 8 8 12 15 14 13 9 13 7 6 8 7 11 4 6 6 3 4 4 1 2 3 7 11 10 12 12
21 19 17 17 17 20 21 20 17 15 15 8 10 16 9 28 15 7 9 12 14 16 13 12 3 5 3 2 3 1 6 4 6 5 5 3 7 6 9 4 7 8 10 11 12
21 19 17 18 17 17 19 20 18 16 15 15 3 13 12 18 9 18 13 13 13 13 12 9 5 6 2 3 1 3 3 6 9 8 4 5 10 7 10 9 8 10 8 12 12
19 18 18 18 18 15 19 20 16 15 15 12 4 6 5 7 18 14 18 18 14 11 10 9 10 5 3 5 2 3 4 8 5 14 6 9 1 11 8 7 6 8 9 10 11
17 17 17 17 17 15 18 20 15 10 11 7 3 6 4 8 14 18 16 20 15 13 5 5 3 6 7 10 9 5 6 6 12 7 11 7 7 9 2 6 7 7 8 10 9
17 17 17 18 15 14 15 8 8 7 11 10 11 9 2 6 12 16 19 19 19 14 11 13 8 17 16 14 9 10 12 11 8 7 6 9 9 11 9 8 8 7 8 9 14
18 18 18 18 17 15 12 9 20 4 11 13 14 22 18 6 12 21 24 15 19 18 16 6 21 15 14 14 10 6 11 11 4 7 3 6 10 9 10 9 9 11 10 8 8
19 19 17 18 16 7 11 10 9 6 4 12 23 20 10 14 17 25 26 17 26 22 25 18 11 15 17 17 16 10 10 9 6 4 2 5 9 11 9 9 9 9 9 9 9
18 17 18 18 11 9 12 12 10 4 7 8 18 14 8 3 16 27 26 23 11 25 23 15 16 22 20 19 14 16 4 5 5 3 3 2 6 4 5 17 15 13 9 9 10
20 18 18 20 8 13 8 11 12 2 9 14 14 9 23 15 11 27 31 10 23 19 13 11 15 23 20 19 17 4 9 5 5 4 4 4 3 4 5 5 7 16 12 13 12
17 16 15 9 2 5 7 14 10 11 14 12 14 21 23 22 20 28 26 3 16 18 10 4 4 14 12 12 12 12 11 8 6 4 6 8 8 6 7 9 5 6 12 15 13
15 14 11 6 5 5 3 9 8 12 6 6 11 25 38 28 19 29 23 14 13 17 13 6 4 3 6 12 18 6 11 4 2 4 8 5 9 11 10 11 3 4 5 7 12
15 15 8 5 5 9 4 7 12 10 6 4 7 21 32 32 25 32 25 16 18 17 14 15 10 9 9 12 9 13 13 6 9 6 5 2 8 7 14 5 4 5 8 4 5
15 5 4 6 7 6 6 10 5 7 9 8 10 23 9 20 12 24 25 22 18 26 16 17 6 6 9 6 14 5 7 3 6 1 4 6 6 7 7 8 6 8 6 7 6
6 5 4 8 9 6 5 12 7 8 4 13 14 14 14 20 12 23 28 27 18 17 7 12 9 3 1 9 2 10 10 5 2 6 5 5 6 5 6 11 10 9 7 5 3
4 5 6 14 5 4 7 7 10 14 5 7 14 11 5 14 14 25 25 20 24 25 9 18 9 4 5 9 14 9 9 5 6 3 5 0 6 2 9 9 8 8 7 6 7
5 5 8 11 5 3 11 9 14 14 9 7 11 17 15 22 23 14 22 19 25 26 21 3 8 9 4 1 7 8 12 6 6 6 3 3 7 3 9 8 9 8 7 6 6
6 3 2 3 8 8 5 16 12 10 10 6 9 18 17 20 13 13 17 9 23 22 22 11 8 11 3 5 4 17 16 16 5 4 7 6 6 5 10 8 5 8 6 4 4
4 5 2 3 0 9 8 9 14 13 20 16 14 19 23 25 10 20 17 14 21 20 14 8 8 6 15 15 10 9 14 13 5 4 5 13 8 6 8 9 8 7 7 6 4
3 4 2 7 9 9 9 6 20 11 13 13 11 25 27 17 13 18 13 17 20 15 8 7 6 5 5 16 17 25 27 23 20 24 13 20 19 12 6 5 6 7 5 2 4
5 4 1 2 5 13 14 11 17 17 8 11 20 26 26 16 11 30 24 24 31 15 16 5 5 6 6 6 17 21 20 23 29 28 16 6 11 7 4 4 5 4 5 5 5
2 1 2 6 5 6 7 11 16 15 12 21 20 27 30 31 18 14 9 7 19 23 15 8 7 5 2 3 9 2 28 27 25 21 24 14 13 7 6 5 5 6 5 5 5
Wind_Direction
221 226 230 222 210 198 197 198 196 199 198 176 161 145 141 147 272 226 216 170 154 137 169 145 208 150 35 244 273 334 297 247 229 270 68 117 145 342 317 116 16 61 36 116 143
216 220 223 224 212 200 188 186 198 197 196 167 182 126 147 132 244 231 222 138 118 156 188 172 170 154 176 253 192 123 276 254 70 39 50 89 271 137 179 158 154 106 86 113 147
215 218 220 220 215 204 200 180 175 194 194 181 151 144 137 98 273 249 188 162 144 182 246 189 113 57 233 165 204 193 233 249 53 87 65 53 260 78 201 236 188 167 142 144 166
216 216 219 219 211 206 202 186 168 165 204 181 179 162 126 107 235 327 173 162 166 196 229 205 150 131 94 239 222 251 239 254 115 123 153 183 57 256 222 218 40 81 147 149 174
213 211 218 216 212 208 200 193 187 168 148 193 183 158 113 190 226 316 152 149 164 206 200 194 188 176 183 196 240 227 258 255 102 153 112 121 191 310 277 252 117 109 139 155 178
211 210 208 211 216 206 202 198 190 182 163 138 192 162 167 227 193 160 184 159 187 201 195 204 201 205 213 202 180 201 228 148 152 166 176 231 210 147 188 239 124 131 150 156 178
209 205 206 203 207 208 206 198 195 187 181 127 205 169 194 209 205 165 179 192 201 203 197 202 192 155 311 170 360 54 208 116 165 220 226 226 255 200 257 101 164 178 164 160 177
202 205 202 199 203 200 206 201 195 184 180 185 78 180 222 198 229 169 179 193 219 208 216 206 138 97 4 19 39 209 231 172 200 203 189 173 248 278 216 152 211 188 193 162 175
200 203 200 204 200 198 202 202 189 176 183 180 193 239 259 215 204 199 172 175 196 205 218 193 150 149 151 142 133 250 182 215 217 200 163 196 302 231 241 160 219 218 188 165 169
197 200 203 197 198 195 199 194 173 162 182 186 184 255 175 195 200 186 190 162 165 192 116 140 182 179 187 185 201 152 207 203 217 187 201 210 230 281 198 171 209 253 212 167 181
192 196 194 188 182 189 180 162 167 189 189 200 187 197 125 187 193 196 170 168 159 171 177 188 185 202 188 192 232 189 180 186 230 181 160 227 248 241 232 199 197 236 262 193 179
191 194 191 184 169 179 172 195 188 111 199 211 216 209 228 181 182 188 176 157 158 181 186 161 218 192 193 193 221 256 197 209 283 121 145 268 263 238 222 237 209 200 218 235 189
188 190 183 172 150 147 187 199 188 112 206 195 209 208 176 163 205 185 183 156 179 177 198 200 192 196 210 194 198 217 199 209 207 133 208 280 271 233 245 227 228 229 195 201 216
172 167 161 147 149 172 211 195 211 95 232 190 197 221 190 325 227 177 189 163 176 189 195 215 213 194 200 203 193 202 148 69 93 101 208 12 289 270 235 226 221 221 209 210 209
157 151 149 156 146 181 186 193 133 114 235 178 185 162 193 191 138 188 191 196 170 170 166 177 197 187 196 196 183 174 139 110 71 83 32 200 271 269 223 268 250 216 214 210 209
151 148 155 198 30 160 198 156 148 213 212 188 154 176 168 202 209 160 184 232 175 161 170 129 289 183 188 182 171 131 94 59 45 52 256 195 219 247 211 227 239 224 208 217 212
155 162 165 149 188 162 74 153 201 227 164 198 185 171 180 191 198 171 182 169 172 155 152 135 157 112 181 160 140 139 153 109 176 205 239 139 213 240 276 282 275 276 280 261 206
160 172 188 190 93 135 128 205 218 224 183 197 190 176 187 181 202 184 175 179 187 164 139 153 186 187 175 169 175 166 176 161 176 192 205 246 237 250 221 218 228 243 254 250 340
156 147 161 192 135 130 146 221 222 232 159 192 189 166 168 179 171 173 172 180 176 168 161 170 142 173 154 138 148 182 188 36 97 101 63 202 249 288 233 242 232 240 241 254 228
144 152 176 168 142 130 161 226 217 225 280 210 184 182 162 189 180 168 173 190 170 190 151 146 112 245 127 125 286 181 146 131 262 153 217 245 231 227 194 220 224 243 206 213 152
128 140 155 136 104 153 213 222 215 247 198 271 190 176 157 172 185 166 168 180 179 187 157 146 113 181 152 201 164 157 185 192 130 197 174 121 256 253 200 177 160 102 82 86 87
139 162 149 143 154 202 203 205 214 237 227 266 303 179 162 182 180 170 180 181 183 179 169 107 106 146 155 341 179 186 171 168 165 209 238 125 261 124 97 88 102 102 94 89 97
132 144 148 196 191 185 226 226 236 208 219 212 272 210 171 184 168 189 172 151 176 177 160 158 142 125 101 348 210 204 178 197 102 77 199 141 259 173 104 97 79 125 115 135 163
132 148 156 239 170 192 186 220 227 233 236 227 242 251 162 181 188 191 157 173 175 176 123 108 157 161 193 199 120 187 191 191 168 155 154 223 179 121 145 155 158 163 185 223 233
152 196 183 178 201 206 202 228 226 236 212 186 248 224 172 165 165 177 135 158 184 145 142 123 130 177 164 159 166 178 182 183 197 218 187 229 224 223 190 198 153 172 213 271 303
144 170 149 144 131 198 222 217 235 218 216 231 220 191 185 151 177 158 157 163 178 169 164 158 135 114 1 162 164 183 183 191 202 214 227 242 270 195 165 140 159 256 285 283 277
88 128 178 164 171 188 214 219 227 197 223 232 210 206 185 181 172 162 117 121 166 171 169 138 127 116 159 76 87 320 200 199 209 205 215 210 222 119 125 144 184 242 241 245 270